Time,TemperatureF,DewpointF,PressureIn,WindDirection,WindDirectionDegrees,WindSpeedMPH,WindSpeedGustMPH,Humidity,HourlyPrecipIn,Conditions,Clouds,dailyrainin,SoftwareType,DateUTC
2013-06-03 00:02:00,54.0,-99.9,29.73,SW,226,21.0,26.0,-999,-99.99,,,-99.99,,2013-06-03 07:02:00,
2013-06-03 00:12:00,54.0,-99.9,29.73,SW,225,21.0,26.0,-999,-99.99,,,-99.99,,2013-06-03 07:12:00,
2013-06-03 00:22:00,54.0,-99.9,29.73,SW,228,20.0,25.0,-999,-99.99,,,-99.99,,2013-06-03 07:22:00,
2013-06-03 00:32:00,54.0,-99.9,29.73,SW,226,21.0,25.0,-999,-99.99,,,-99.99,,2013-06-03 07:32:00,
2013-06-03 00:42:00,54.0,-99.9,29.73,SW,227,21.0,25.0,-999,-99.99,,,-99.99,,2013-06-03 07:42:00,
2013-06-03 00:52:00,54.0,-99.9,29.72,SW,227,22.0,26.0,-999,-99.99,,,-99.99,,2013-06-03 07:52:00,
2013-06-03 01:02:00,54.0,-99.9,29.72,SW,227,22.0,26.0,-999,-99.99,,,-99.99,,2013-06-03 08:02:00,
2013-06-03 01:12:00,54.0,-99.9,29.73,SW,227,22.0,26.0,-999,-99.99,,,-99.99,,2013-06-03 08:12:00,
2013-06-03 01:22:00,55.0,-99.9,29.72,SW,227,22.0,27.0,-999,-99.99,,,-99.99,,2013-06-03 08:22:00,
2013-06-03 01:32:00,55.0,-99.9,29.73,SW,228,21.0,24.0,-999,-99.99,,,-99.99,,2013-06-03 08:32:00,
2013-06-03 01:42:00,54.0,-99.9,29.73,SW,230,21.0,24.0,-999,-99.99,,,-99.99,,2013-06-03 08:42:00,
2013-06-03 01:52:00,54.0,-99.9,29.73,SW,229,20.0,25.0,-999,-99.99,,,-99.99,,2013-06-03 08:52:00,
2013-06-03 02:02:00,55.0,-99.9,29.73,SW,228,19.0,23.0,-999,-99.99,,,-99.99,,2013-06-03 09:02:00,
2013-06-03 02:12:00,54.0,-99.9,29.73,SW,229,19.0,23.0,-999,-99.99,,,-99.99,,2013-06-03 09:12:00,
2013-06-03 02:22:00,54.0,-99.9,29.73,SW,229,19.0,22.0,-999,-99.99,,,-99.99,,2013-06-03 09:22:00,
2013-06-03 02:33:00,54.0,-99.9,29.73,SW,229,17.0,22.0,-999,-99.99,,,-99.99,,2013-06-03 09:33:00,
2013-06-03 02:43:00,54.0,-99.9,29.73,SW,228,18.0,20.0,-999,-99.99,,,-99.99,,2013-06-03 09:43:00,
2013-06-03 02:53:00,55.0,-99.9,29.73,SW,227,16.0,20.0,-999,-99.99,,,-99.99,,2013-06-03 09:53:00,
2013-06-03 03:03:00,54.0,-99.9,29.74,SW,228,15.0,18.0,-999,-99.99,,,-99.99,,2013-06-03 10:03:00,
2013-06-03 03:13:00,54.0,-99.9,29.74,SW,225,16.0,18.0,-999,-99.99,,,-99.99,,2013-06-03 10:13:00,
2013-06-03 03:22:00,54.0,-99.9,29.74,SW,226,15.0,18.0,-999,-99.99,,,-99.99,,2013-06-03 10:22:00,
2013-06-03 03:33:00,54.0,-99.9,29.74,SW,227,15.0,18.0,-999,-99.99,,,-99.99,,2013-06-03 10:33:00,
2013-06-03 03:42:00,54.0,-99.9,29.74,SW,227,15.0,18.0,-999,-99.99,,,-99.99,,2013-06-03 10:42:00,
2013-06-03 03:53:00,55.0,-99.9,29.74,SW,230,13.0,17.0,-999,-99.99,,,-99.99,,2013-06-03 10:53:00,
2013-06-03 04:02:00,55.0,-99.9,29.75,SW,228,13.0,15.0,-999,-99.99,,,-99.99,,2013-06-03 11:02:00,
2013-06-03 04:12:00,55.0,-99.9,29.75,SW,231,12.0,17.0,-999,-99.99,,,-99.99,,2013-06-03 11:12:00,
2013-06-03 04:22:00,55.0,-99.9,29.75,WSW,239,11.0,15.0,-999,-99.99,,,-99.99,,2013-06-03 11:22:00,
2013-06-03 04:32:00,55.0,-99.9,29.75,West,261,9.0,11.0,-999,-99.99,,,-99.99,,2013-06-03 11:32:00,
2013-06-03 04:42:00,55.0,-99.9,29.75,West,260,9.0,13.0,-999,-99.99,,,-99.99,,2013-06-03 11:42:00,
2013-06-03 04:52:00,55.0,-99.9,29.75,WSW,252,9.0,12.0,-999,-99.99,,,-99.99,,2013-06-03 11:52:00,
2013-06-03 05:02:00,55.0,-99.9,29.75,WSW,244,9.0,13.0,-999,-99.99,,,-99.99,,2013-06-03 12:02:00,
2013-06-03 05:12:00,55.0,-99.9,29.75,SW,234,11.0,13.0,-999,-99.99,,,-99.99,,2013-06-03 12:12:00,
2013-06-03 05:22:00,55.0,-99.9,29.75,WSW,239,10.0,13.0,-999,-99.99,,,-99.99,,2013-06-03 12:22:00,
2013-06-03 05:32:00,55.0,-99.9,29.75,WSW,238,10.0,15.0,-999,-99.99,,,-99.99,,2013-06-03 12:32:00,
2013-06-03 05:42:00,55.0,-99.9,29.75,WSW,237,11.0,16.0,-999,-99.99,,,-99.99,,2013-06-03 12:42:00,
2013-06-03 05:52:00,56.0,-99.9,29.75,WSW,237,9.0,14.0,-999,-99.99,,,-99.99,,2013-06-03 12:52:00,
2013-06-03 06:02:00,55.0,-99.9,29.75,SW,228,10.0,13.0,-999,-99.99,,,-99.99,,2013-06-03 13:02:00,
2013-06-03 06:12:00,55.0,-99.9,29.76,SW,232,10.0,13.0,-999,-99.99,,,-99.99,,2013-06-03 13:12:00,
2013-06-03 06:22:00,55.0,-99.9,29.76,SW,235,11.0,13.0,-999,-99.99,,,-99.99,,2013-06-03 13:22:00,
2013-06-03 06:33:00,55.0,-99.9,29.76,SW,235,10.0,12.0,-999,-99.99,,,-99.99,,2013-06-03 13:33:00,
2013-06-03 06:43:00,55.0,-99.9,29.76,SW,235,10.0,13.0,-999,-99.99,,,-99.99,,2013-06-03 13:43:00,
2013-06-03 06:53:00,55.0,-99.9,29.77,WSW,238,9.0,12.0,-999,-99.99,,,-99.99,,2013-06-03 13:53:00,
2013-06-03 07:02:00,56.0,-99.9,29.77,WSW,241,10.0,13.0,-999,-99.99,,,-99.99,,2013-06-03 14:02:00,
2013-06-03 07:13:00,56.0,-99.9,29.77,WSW,250,9.0,13.0,-999,-99.99,,,-99.99,,2013-06-03 14:13:00,
2013-06-03 07:22:00,56.0,-99.9,29.77,SW,232,11.0,13.0,-999,-99.99,,,-99.99,,2013-06-03 14:22:00,
2013-06-03 07:33:00,56.0,-99.9,29.77,SW,230,11.0,13.0,-999,-99.99,,,-99.99,,2013-06-03 14:33:00,
2013-06-03 07:42:00,56.0,-99.9,29.77,SW,230,11.0,13.0,-999,-99.99,,,-99.99,,2013-06-03 14:42:00,
2013-06-03 07:52:00,56.0,-99.9,29.78,WSW,239,10.0,13.0,-999,-99.99,,,-99.99,,2013-06-03 14:52:00,
2013-06-03 08:02:00,56.0,-99.9,29.78,WSW,241,11.0,13.0,-999,-99.99,,,-99.99,,2013-06-03 15:02:00,
2013-06-03 08:12:00,56.0,-99.9,29.78,WSW,247,12.0,16.0,-999,-99.99,,,-99.99,,2013-06-03 15:12:00,
2013-06-03 08:22:00,56.0,-99.9,29.79,WSW,248,10.0,14.0,-999,-99.99,,,-99.99,,2013-06-03 15:22:00,
2013-06-03 08:33:00,56.0,-99.9,29.79,WSW,255,10.0,13.0,-999,-99.99,,,-99.99,,2013-06-03 15:33:00,
2013-06-03 08:43:00,57.0,-99.9,29.79,WSW,254,9.0,12.0,-999,-99.99,,,-99.99,,2013-06-03 15:43:00,
2013-06-03 08:53:00,57.0,-99.9,29.80,WSW,255,10.0,12.0,-999,-99.99,,,-99.99,,2013-06-03 15:53:00,
2013-06-03 09:03:00,57.0,-99.9,29.80,WSW,256,8.0,11.0,-999,-99.99,,,-99.99,,2013-06-03 16:03:00,
2013-06-03 09:13:00,58.0,-99.9,29.81,WSW,256,9.0,13.0,-999,-99.99,,,-99.99,,2013-06-03 16:13:00,
2013-06-03 09:23:00,57.0,-99.9,29.81,West,259,9.0,11.0,-999,-99.99,,,-99.99,,2013-06-03 16:23:00,
2013-06-03 09:33:00,57.0,-99.9,29.81,West,260,9.0,11.0,-999,-99.99,,,-99.99,,2013-06-03 16:33:00,
2013-06-03 09:42:00,57.0,-99.9,29.81,WSW,249,8.0,10.0,-999,-99.99,,,-99.99,,2013-06-03 16:42:00,
2013-06-03 09:53:00,58.0,-99.9,29.81,WSW,241,8.0,11.0,-999,-99.99,,,-99.99,,2013-06-03 16:53:00,
2013-06-03 10:02:00,57.0,-99.9,29.82,West,263,9.0,12.0,-999,-99.99,,,-99.99,,2013-06-03 17:02:00,
2013-06-03 10:12:00,57.0,-99.9,29.82,West,263,9.0,12.0,-999,-99.99,,,-99.99,,2013-06-03 17:12:00,
2013-06-03 10:22:00,58.0,-99.9,29.82,West,265,10.0,15.0,-999,-99.99,,,-99.99,,2013-06-03 17:22:00,
2013-06-03 10:33:00,58.0,-99.9,29.82,WSW,247,10.0,15.0,-999,-99.99,,,-99.99,,2013-06-03 17:33:00,
2013-06-03 10:42:00,58.0,-99.9,29.82,WSW,247,10.0,15.0,-999,-99.99,,,-99.99,,2013-06-03 17:42:00,
2013-06-03 10:52:00,58.0,-99.9,29.83,WSW,240,10.0,14.0,-999,-99.99,,,-99.99,,2013-06-03 17:52:00,
2013-06-03 11:03:00,57.0,-99.9,29.83,WSW,245,13.0,16.0,-999,-99.99,,,-99.99,,2013-06-03 18:03:00,
2013-06-03 11:12:00,58.0,-99.9,29.83,WSW,238,12.0,15.0,-999,-99.99,,,-99.99,,2013-06-03 18:12:00,
2013-06-03 11:22:00,58.0,-99.9,29.84,WSW,248,11.0,15.0,-999,-99.99,,,-99.99,,2013-06-03 18:22:00,
2013-06-03 11:32:00,58.0,-99.9,29.84,WSW,243,11.0,15.0,-999,-99.99,,,-99.99,,2013-06-03 18:32:00,
2013-06-03 11:43:00,58.0,-99.9,29.84,WSW,245,12.0,17.0,-999,-99.99,,,-99.99,,2013-06-03 18:43:00,
2013-06-03 11:53:00,59.0,-99.9,29.84,WSW,246,13.0,16.0,-999,-99.99,,,-99.99,,2013-06-03 18:53:00,
2013-06-03 12:03:00,59.0,-99.9,29.84,WSW,246,15.0,17.0,-999,-99.99,,,-99.99,,2013-06-03 19:03:00,
2013-06-03 12:12:00,59.0,-99.9,29.84,WSW,252,15.0,18.0,-999,-99.99,,,-99.99,,2013-06-03 19:12:00,
2013-06-03 12:23:00,59.0,-99.9,29.84,WSW,249,15.0,19.0,-999,-99.99,,,-99.99,,2013-06-03 19:23:00,
2013-06-03 12:33:00,58.0,-99.9,29.84,WSW,239,16.0,21.0,-999,-99.99,,,-99.99,,2013-06-03 19:33:00,
2013-06-03 12:42:00,58.0,-99.9,29.84,WSW,242,16.0,20.0,-999,-99.99,,,-99.99,,2013-06-03 19:42:00,
2013-06-03 12:53:00,59.0,-99.9,29.85,WSW,249,15.0,19.0,-999,-99.99,,,-99.99,,2013-06-03 19:53:00,
2013-06-03 13:02:00,59.0,-99.9,29.85,WSW,240,15.0,21.0,-999,-99.99,,,-99.99,,2013-06-03 20:02:00,
2013-06-03 13:13:00,59.0,-99.9,29.85,WSW,240,15.0,21.0,-999,-99.99,,,-99.99,,2013-06-03 20:13:00,
2013-06-03 13:22:00,59.0,-99.9,29.84,WSW,241,17.0,20.0,-999,-99.99,,,-99.99,,2013-06-03 20:22:00,
2013-06-03 13:33:00,59.0,-99.9,29.84,WSW,244,16.0,21.0,-999,-99.99,,,-99.99,,2013-06-03 20:33:00,
2013-06-03 13:43:00,59.0,-99.9,29.84,WSW,239,17.0,22.0,-999,-99.99,,,-99.99,,2013-06-03 20:43:00,
2013-06-03 13:53:00,59.0,-99.9,29.84,WSW,241,16.0,22.0,-999,-99.99,,,-99.99,,2013-06-03 20:53:00,
2013-06-03 14:03:00,59.0,-99.9,29.84,WSW,242,16.0,21.0,-999,-99.99,,,-99.99,,2013-06-03 21:03:00,
2013-06-03 14:12:00,59.0,-99.9,29.84,WSW,242,16.0,21.0,-999,-99.99,,,-99.99,,2013-06-03 21:12:00,
2013-06-03 14:22:00,59.0,-99.9,29.84,WSW,239,18.0,24.0,-999,-99.99,,,-99.99,,2013-06-03 21:22:00,
2013-06-03 14:33:00,59.0,-99.9,29.85,WSW,250,18.0,23.0,-999,-99.99,,,-99.99,,2013-06-03 21:33:00,
2013-06-03 14:43:00,59.0,-99.9,29.85,WSW,250,18.0,23.0,-999,-99.99,,,-99.99,,2013-06-03 21:43:00,
2013-06-03 14:53:00,59.0,-99.9,29.84,WSW,243,18.0,25.0,-999,-99.99,,,-99.99,,2013-06-03 21:53:00,
2013-06-03 15:03:00,59.0,-99.9,29.85,WSW,244,18.0,23.0,-999,-99.99,,,-99.99,,2013-06-03 22:03:00,
2013-06-03 15:13:00,59.0,-99.9,29.83,WSW,243,21.0,27.0,-999,-99.99,,,-99.99,,2013-06-03 22:13:00,
2013-06-03 15:23:00,60.0,-99.9,29.84,WSW,250,18.0,27.0,-999,-99.99,,,-99.99,,2013-06-03 22:23:00,
2013-06-03 15:33:00,59.0,-99.9,29.84,WSW,245,20.0,26.0,-999,-99.99,,,-99.99,,2013-06-03 22:33:00,
2013-06-03 15:42:00,60.0,-99.9,29.84,WSW,242,19.0,26.0,-999,-99.99,,,-99.99,,2013-06-03 22:42:00,
2013-06-03 15:53:00,59.0,-99.9,29.84,WSW,251,20.0,28.0,-999,-99.99,,,-99.99,,2013-06-03 22:53:00,
2013-06-03 16:02:00,60.0,-99.9,29.83,WSW,246,19.0,24.0,-999,-99.99,,,-99.99,,2013-06-03 23:02:00,
2013-06-03 16:12:00,60.0,-99.9,29.83,WSW,246,19.0,24.0,-999,-99.99,,,-99.99,,2013-06-03 23:12:00,
2013-06-03 16:23:00,60.0,-99.9,29.83,WSW,237,18.0,23.0,-999,-99.99,,,-99.99,,2013-06-03 23:23:00,
2013-06-03 16:32:00,59.0,-99.9,29.84,WSW,237,18.0,23.0,-999,-99.99,,,-99.99,,2013-06-03 23:32:00,
2013-06-03 16:42:00,59.0,-99.9,29.84,WSW,241,18.0,23.0,-999,-99.99,,,-99.99,,2013-06-03 23:42:00,
2013-06-03 16:52:00,59.0,-99.9,29.84,WSW,241,18.0,23.0,-999,-99.99,,,-99.99,,2013-06-03 23:52:00,
2013-06-03 17:02:00,58.0,-99.9,29.84,WSW,238,18.0,25.0,-999,-99.99,,,-99.99,,2013-06-04 00:02:00,
2013-06-03 17:12:00,58.0,-99.9,29.83,SW,236,19.0,24.0,-999,-99.99,,,-99.99,,2013-06-04 00:12:00,
2013-06-03 17:22:00,59.0,-99.9,29.83,WSW,240,18.0,23.0,-999,-99.99,,,-99.99,,2013-06-04 00:22:00,
2013-06-03 17:32:00,58.0,-99.9,29.83,SW,232,17.0,23.0,-999,-99.99,,,-99.99,,2013-06-04 00:32:00,
2013-06-03 17:42:00,58.0,-99.9,29.83,SW,232,17.0,23.0,-999,-99.99,,,-99.99,,2013-06-04 00:42:00,
2013-06-03 17:52:00,59.0,-99.9,29.83,WSW,238,19.0,23.0,-999,-99.99,,,-99.99,,2013-06-04 00:52:00,
2013-06-03 18:02:00,58.0,-99.9,29.83,SW,235,18.0,22.0,-999,-99.99,,,-99.99,,2013-06-04 01:02:00,
2013-06-03 18:12:00,58.0,-99.9,29.83,SW,236,18.0,23.0,-999,-99.99,,,-99.99,,2013-06-04 01:12:00,
2013-06-03 18:22:00,58.0,-99.9,29.82,SW,235,17.0,22.0,-999,-99.99,,,-99.99,,2013-06-04 01:22:00,
2013-06-03 18:32:00,59.0,-99.9,29.83,SW,233,16.0,22.0,-999,-99.99,,,-99.99,,2013-06-04 01:32:00,
2013-06-03 18:42:00,59.0,-99.9,29.83,SW,234,16.0,23.0,-999,-99.99,,,-99.99,,2013-06-04 01:42:00,
2013-06-03 18:53:00,58.0,-99.9,29.83,SW,231,14.0,20.0,-999,-99.99,,,-99.99,,2013-06-04 01:53:00,
2013-06-03 19:03:00,59.0,-99.9,29.83,SW,235,11.0,19.0,-999,-99.99,,,-99.99,,2013-06-04 02:03:00,
2013-06-03 19:12:00,59.0,-99.9,29.84,SW,231,13.0,17.0,-999,-99.99,,,-99.99,,2013-06-04 02:12:00,
2013-06-03 19:22:00,58.0,-99.9,29.83,SW,228,15.0,19.0,-999,-99.99,,,-99.99,,2013-06-04 02:22:00,
2013-06-03 19:32:00,58.0,-99.9,29.84,SW,233,13.0,16.0,-999,-99.99,,,-99.99,,2013-06-04 02:32:00,
2013-06-03 19:42:00,58.0,-99.9,29.84,SW,233,13.0,16.0,-999,-99.99,,,-99.99,,2013-06-04 02:42:00,
2013-06-03 19:52:00,58.0,-99.9,29.84,SW,228,13.0,17.0,-999,-99.99,,,-99.99,,2013-06-04 02:52:00,
2013-06-03 20:02:00,58.0,-99.9,29.84,SW,228,13.0,17.0,-999,-99.99,,,-99.99,,2013-06-04 03:02:00,
2013-06-03 20:12:00,58.0,-99.9,29.84,SW,228,13.0,17.0,-999,-99.99,,,-99.99,,2013-06-04 03:12:00,
2013-06-03 20:23:00,58.0,-99.9,29.84,SW,228,13.0,17.0,-999,-99.99,,,-99.99,,2013-06-04 03:23:00,
2013-06-03 20:33:00,57.0,-99.9,29.86,SW,230,11.0,15.0,-999,-99.99,,,-99.99,,2013-06-04 03:33:00,
2013-06-03 20:43:00,57.0,-99.9,29.85,SW,230,13.0,15.0,-999,-99.99,,,-99.99,,2013-06-04 03:43:00,
2013-06-03 20:54:00,57.0,-99.9,29.85,SW,234,13.0,17.0,-999,-99.99,,,-99.99,,2013-06-04 03:54:00,
2013-06-03 21:03:00,58.0,-99.9,29.85,SW,230,12.0,16.0,-999,-99.99,,,-99.99,,2013-06-04 04:03:00,
2013-06-03 21:13:00,58.0,-99.9,29.86,SW,236,11.0,17.0,-999,-99.99,,,-99.99,,2013-06-04 04:13:00,
2013-06-03 21:23:00,57.0,-99.9,29.86,SW,232,13.0,17.0,-999,-99.99,,,-99.99,,2013-06-04 04:23:00,
2013-06-03 21:33:00,58.0,-99.9,29.86,WSW,240,11.0,17.0,-999,-99.99,,,-99.99,,2013-06-04 04:33:00,
2013-06-03 21:42:00,58.0,-99.9,29.86,WSW,240,11.0,17.0,-999,-99.99,,,-99.99,,2013-06-04 04:42:00,
2013-06-03 21:53:00,57.0,-99.9,29.87,SW,235,11.0,16.0,-999,-99.99,,,-99.99,,2013-06-04 04:53:00,
2013-06-03 22:03:00,57.0,-99.9,29.87,WSW,244,11.0,14.0,-999,-99.99,,,-99.99,,2013-06-04 05:03:00,
2013-06-03 22:12:00,57.0,-99.9,29.87,WSW,248,11.0,13.0,-999,-99.99,,,-99.99,,2013-06-04 05:12:00,
2013-06-03 22:22:00,57.0,-99.9,29.87,WSW,249,7.0,10.0,-999,-99.99,,,-99.99,,2013-06-04 05:22:00,
2013-06-03 22:32:00,57.0,-99.9,29.87,WSW,245,7.0,11.0,-999,-99.99,,,-99.99,,2013-06-04 05:32:00,
2013-06-03 22:42:00,57.0,-99.9,29.87,WSW,245,7.0,11.0,-999,-99.99,,,-99.99,,2013-06-04 05:42:00,
2013-06-03 22:52:00,57.0,-99.9,29.88,WSW,254,6.0,8.0,-999,-99.99,,,-99.99,,2013-06-04 05:52:00,
2013-06-03 23:02:00,57.0,-99.9,29.88,WSW,254,7.0,9.0,-999,-99.99,,,-99.99,,2013-06-04 06:02:00,
2013-06-03 23:12:00,57.0,-99.9,29.88,WSW,248,6.0,9.0,-999,-99.99,,,-99.99,,2013-06-04 06:12:00,
2013-06-03 23:22:00,57.0,-99.9,29.88,WSW,256,7.0,10.0,-999,-99.99,,,-99.99,,2013-06-04 06:22:00,
2013-06-03 23:32:00,57.0,-99.9,29.88,WSW,252,7.0,9.0,-999,-99.99,,,-99.99,,2013-06-04 06:32:00,
2013-06-03 23:42:00,57.0,-99.9,29.88,West,262,7.0,10.0,-999,-99.99,,,-99.99,,2013-06-04 06:42:00,
2013-06-03 23:52:00,57.0,-99.9,29.88,WSW,254,7.0,10.0,-999,-99.99,,,-99.99,,2013-06-04 06:52:00,